Location: Coed Ely
(51.5661°N, 3.4150°W)
Time: 20:08:38
(UTC+00:00)

Okean-O - Pass Details

Date: 28 January 2021
Orbit: 638 x 641 km, 98.2° (Epoch: 27 February)

Event Time Altitude Azimuth Distance (km) Brightness Sun altitude
Rises 18:02:07 0° 142° (SE) 2,939 5.8 -10.3°
Reaches altitude 10° 18:04:24 10° 135° (SE) 2,034 4.9 -10.6°
Maximum altitude 18:08:32 40° 66° (ENE) 958 3.0 -11.3°
Drops below altitude 10° 18:12:41 10° 358° (N) 2,047 5.1 -11.9°
Sets 18:14:59 0° 351° (N) 2,961 6.0 -12.2°
